1484452800.43,15656,5.38,71986.8,-18.65,-19.75,-19.65,0,*6A
1484452801.68,15657,5.38,71990.0,-18.65,-19.65,-19.75,0,*6B
1484452802.92,15658,5.38,71992.3,-18.65,-19.75,-19.65,0,*64
1484452804.18,15659,5.38,71990.5,-18.65,-19.81,-19.65,0,*6E
1484452805.44,15660,5.38,71986.0,-18.65,-19.81,-19.65,0,*64
1484452806.66,15661,5.38,71976.8,-18.65,-19.75,-19.75,0,*6F
1484452807.93,15662,5.38,71980.5,-18.65,-19.65,-19.65,0,*6C
1484452809.17,15663,5.38,71986.0,-18.65,-19.75,-19.65,0,*6C
1484452810.44,15664,5.38,71982.0,-18.65,-19.65,-19.65,0,*6A
1484452811.69,15665,5.38,71990.0,-18.65,-19.75,-19.65,0,*6A
1484452812.9,15666,5.38,71990.3,-18.65,-19.75,-19.75,0,*68
1484452814.14,15667,5.38,71988.0,-18.67,-19.75,-19.75,0,*6B
1484452815.41,15668,5.38,71992.3,-18.65,-19.65,-19.65,0,*66
1484452816.69,15669,5.38,71988.8,-18.65,-19.65,-19.65,0,*67
1484452817.93,15670,5.38,71994.3,-18.65,-19.65,-19.75,0,*6E
1484452819.17,15671,5.38,71988.8,-18.65,-19.75,-19.65,0,*6F
1484452820.45,15672,5.38,71992.8,-18.65,-19.65,-19.65,0,*6D
1484452821.72,15673,5.38,71990.0,-18.65,-19.65,-19.65,0,*6C
1484452822.96,15674,5.38,71992.3,-18.65,-19.75,-19.65,0,*6A
1484452824.2,15675,5.38,71992.8,-18.65,-19.75,-19.65,0,*6B
1484452825.47,15676,5.38,71988.8,-18.67,-19.75,-19.65,0,*6A
1484452826.74,15677,5.38,71988.3,-18.65,-19.65,-19.65,0,*68
1484452828.03,15678,5.38,71986.5,-18.67,-19.65,-19.65,0,*65
1484452829.31,15679,5.38,71984.3,-18.65,-19.65,-19.65,0,*66
1484452830.55,15680,5.38,71986.3,-18.65,-19.75,-19.61,0,*65
1484452831.84,15681,5.38,71984.8,-18.67,-19.65,-19.61,0,*67
1484452833.12,15682,5.38,71984.3,-18.65,-19.61,-19.65,0,*66
1484452834.36,15683,5.38,71990.0,-18.65,-19.75,-19.65,0,*62
1484452835.63,15684,5.38,71986.5,-18.65,-19.65,-19.65,0,*64
1484452836.92,15685,5.38,71988.8,-18.67,-19.65,-19.65,0,*67
1484452838.17,15686,5.38,71990.3,-18.65,-19.65,-19.75,0,*67
1484452839.44,15687,5.38,71988.5,-18.65,-19.65,-19.65,0,*67
1484452840.71,15688,5.38,71990.5,-18.65,-19.65,-19.65,0,*68
1484452841.96,15689,5.38,71990.8,-18.65,-19.75,-19.65,0,*68
1484452843.2,15690,5.38,71994.0,-18.65,-19.75,-19.65,0,*60
1484452844.47,15691,5.38,71992.8,-18.65,-19.65,-19.65,0,*60
1484452845.74,15692,5.38,71990.5,-18.67,-19.75,-19.65,0,*60
1484452847.03,15693,5.38,71988.3,-18.67,-19.65,-19.65,0,*60
1484452848.3,15694,5.38,71996.3,-18.65,-19.65,-19.65,0,*65
1484452849.59,15695,5.38,71988.8,-18.67,-19.65,-19.65,0,*66
1484452850.88,15696,5.38,71988.0,-18.67,-19.65,-19.65,0,*65
1484452852.18,15697,5.38,71988.0,-18.67,-19.65,-19.65,0,*64
1484452853.46,15698,5.38,71986.3,-18.65,-19.65,-19.57,0,*68
1484452854.67,15699,5.38,71980.0,-18.65,-19.47,-19.47,0,*68
1484452855.95,15700,5.38,71984.8,-18.65,-19.57,-19.41,0,*6E
1484452857.24,15701,5.38,71976.5,-18.63,-19.41,-19.41,0,*6E
1484452858.51,15702,5.38,71982.3,-18.63,-19.37,-19.41,0,*6C
1484452859.76,15703,5.38,71980.0,-18.65,-19.47,-19.41,0,*6C
1484452861.02,15704,5.38,71968.8,-18.67,-19.47,-19.41,0,*69
1484452862.26,15705,5.38,71974.0,-18.67,-19.47,-19.47,0,*6E
1484452863.53,15706,5.38,71970.0,-18.63,-19.41,-19.51,0,*68
1484452864.79,15707,5.38,71972.5,-18.63,-19.41,-19.51,0,*69
1484452866.07,15708,5.38,71974.5,-18.65,-19.57,-19.61,0,*64
1484452867.34,15709,5.38,71974.3,-18.63,-19.57,-19.51,0,*60
1484452868.62,15710,5.38,71968.3,-18.63,-19.51,-19.57,0,*68
1484452869.92,15711,5.38,71968.5,-18.63,-19.57,-19.57,0,*6F
1484452871.2,15712,5.38,71972.8,-18.63,-19.57,-19.51,0,*6A
1484452872.48,15713,5.38,71972.8,-18.65,-19.61,-19.57,0,*6E
1484452873.75,15714,5.38,71982.5,-18.63,-19.57,-19.51,0,*6C
1484452875.02,15715,5.38,71974.3,-18.63,-19.51,-19.41,0,*6A
1484452876.27,15716,5.38,71978.0,-18.65,-19.57,-19.47,0,*6F
1484452877.54,15717,5.38,71984.5,-18.65,-19.61,-19.41,0,*6D
1484452878.82,15718,5.38,71984.3,-18.65,-19.57,-19.57,0,*60
1484452880.1,15719,5.38,71982.5,-18.63,-19.57,-19.51,0,*61
1484452881.34,15720,5.38,71982.0,-18.63,-19.51,-19.51,0,*6D
1484452882.64,15721,5.38,71984.3,-18.63,-19.57,-19.57,0,*6C
1484452883.95,15722,5.38,71986.0,-18.63,-19.57,-19.57,0,*6F
1484452885.22,15723,5.38,71984.0,-18.63,-19.57,-19.51,0,*68
1484452886.47,15724,5.38,71990.5,-18.59,-19.51,-19.51,0,*60
1484452887.77,15725,5.38,71986.8,-18.63,-19.57,-19.57,0,*68
1484452889.08,15726,5.38,71984.3,-18.63,-19.57,-19.57,0,*6B
1484452890.32,15727,5.38,71990.5,-18.59,-19.51,-19.51,0,*63
1484452891.59,15728,5.38,71986.0,-18.63,-19.61,-19.51,0,*66
1484452892.86,15729,5.38,71990.8,-18.63,-19.51,-19.41,0,*65
1484452894.11,15730,5.38,71988.8,-18.63,-19.51,-19.51,0,*6C
1484452895.4,15731,5.38,71988.8,-18.63,-19.41,-19.41,0,*6D
1484452896.67,15732,5.38,71990.3,-18.63,-19.37,-19.31,0,*68
1484452897.96,15733,5.38,71980.5,-18.63,-19.23,-19.23,0,*6F
1484452899.25,15734,5.38,71974.8,-18.63,-19.23,-19.23,0,*68
1484452900.53,15735,5.38,71976.0,-18.63,-19.23,-19.13,0,*6A
1484452901.78,15736,5.38,71972.8,-18.59,-19.17,-19.17,0,*63
1484452903.07,15737,5.38,71974.0,-18.63,-19.27,-19.23,0,*6F
1484452904.34,15738,5.38,71980.5,-18.57,-19.23,-19.23,0,*63
1484452905.65,15739,5.38,71976.5,-18.63,-19.27,-19.27,0,*65
1484452906.92,15740,5.38,71966.8,-18.59,-19.37,-19.31,0,*64
1484452908.19,15741,5.38,71976.0,-18.59,-19.37,-19.31,0,*65
1484452909.46,15742,5.38,71972.5,-18.63,-19.41,-19.37,0,*68
1484452910.7,15743,5.38,71984.0,-18.59,-19.47,-19.37,0,*66
1484452911.97,15744,5.38,71986.8,-18.63,-19.37,-19.41,0,*6E
1484452913.22,15745,5.38,71982.3,-18.63,-19.37,-19.37,0,*6E
1484452914.52,15746,5.38,71974.8,-18.59,-19.31,-19.23,0,*67
1484452915.74,15747,5.38,71964.5,-18.57,-19.17,-19.17,0,*6B
1484452917.03,15748,5.38,71964.5,-18.63,-19.23,-19.23,0,*63
1484452918.3,15749,5.38,71968.3,-18.59,-19.23,-19.17,0,*6C
1484452919.57,15750,5.38,71968.0,-18.59,-19.17,-19.23,0,*64
1484452920.86,15751,5.38,71974.8,-18.59,-19.23,-19.23,0,*62
1484452922.13,15752,5.38,71960.5,-18.57,-19.23,-19.23,0,*6F
1484452923.38,15753,5.38,71962.8,-18.57,-19.31,-19.17,0,*6A
1484452924.65,15754,5.38,71964.3,-18.59,-19.37,-19.31,0,*61
1484452925.93,15755,5.38,71962.5,-18.59,-19.37,-19.31,0,*60
1484452927.18,15756,5.38,71956.5,-18.57,-19.31,-19.37,0,*6D
1484452928.4,15757,5.38,71960.0,-18.57,-19.47,-19.37,0,*6D
1484452929.61,15758,5.38,71962.3,-18.57,-19.47,-19.47,0,*65
1484452930.83,15759,5.38,71968.5,-18.57,-19.47,-19.51,0,*63
1484452932.07,15760,5.38,71968.0,-18.59,-19.47,-19.47,0,*60
1484452933.29,15761,5.38,71968.8,-18.57,-19.47,-19.47,0,*6F
1484452934.51,15762,5.38,71976.8,-18.57,-19.51,-19.47,0,*6B
1484452935.73,15763,5.38,71972.8,-18.57,-19.51,-19.37,0,*6D
1484452936.95,15764,5.38,71968.5,-18.57,-19.51,-19.47,0,*6D
1484452938.17,15765,5.38,71982.0,-18.57,-19.51,-19.51,0,*6B
1484452939.4,15766,5.38,71972.3,-18.57,-19.51,-19.51,0,*68
1484452940.62,15767,5.38,71970.8,-18.57,-19.51,-19.47,0,*6E
1484452941.84,15768,5.38,71972.3,-18.57,-19.51,-19.47,0,*61
1484452943.06,15769,5.38,71968.3,-18.57,-19.51,-19.47,0,*60
1484452944.27,15770,5.38,71966.8,-18.57,-19.47,-19.47,0,*6F
1484452945.49,15771,5.38,71972.5,-18.57,-19.51,-19.47,0,*69
1484452946.74,15772,5.38,71970.3,-18.59,-19.51,-19.51,0,*63
1484452947.96,15773,5.38,71978.0,-18.57,-19.47,-19.37,0,*6B
1484452949.18,15774,5.38,71982.3,-18.57,-19.51,-19.47,0,*6C
1484452950.4,15775,5.38,71988.8,-18.57,-19.47,-19.47,0,*6A
1484452951.61,15776,5.38,71972.8,-18.57,-19.47,-19.47,0,*69
1484452952.83,15777,5.38,71990.5,-18.57,-19.47,-19.51,0,*6F
1484452954.12,15778,5.38,71990.8,-18.55,-19.41,-19.31,0,*62
1484452955.34,15779,5.38,71988.3,-18.57,-19.47,-19.47,0,*66
1484452956.56,15780,5.38,71992.3,-18.57,-19.47,-19.37,0,*67
1484452957.81,15781,5.38,71980.0,-18.57,-19.31,-19.37,0,*67
1484452959.03,15782,5.38,71976.0,-18.57,-19.47,-19.37,0,*65
1484452960.25,15783,5.38,71984.3,-18.57,-19.47,-19.37,0,*64
1484452961.47,15784,5.38,71994.8,-18.57,-19.47,-19.37,0,*63
1484452962.72,15785,5.38,71986.5,-18.57,-19.37,-19.31,0,*63
1484452964.01,15786,5.38,71972.5,-18.55,-19.41,-19.31,0,*63
1484452965.31,15787,5.38,71972.5,-18.55,-19.27,-19.27,0,*65
1484452966.56,15788,5.38,71972.3,-18.57,-19.37,-19.31,0,*6E
1484452967.84,15789,5.38,71964.3,-18.57,-19.31,-19.31,0,*69
1484452969.13,15790,5.38,71980.0,-18.55,-19.31,-19.27,0,*64
1484452970.44,15791,5.38,71976.0,-18.55,-19.27,-19.27,0,*62
1484452971.71,15792,5.38,71976.8,-18.57,-19.31,-19.31,0,*63
1484452972.99,15793,5.38,71974.3,-18.57,-19.27,-19.23,0,*66
1484452974.27,15794,5.38,71974.3,-18.55,-19.27,-19.17,0,*64
1484452975.51,15795,5.38,71976.3,-18.55,-19.17,-19.13,0,*62
1484452976.76,15796,5.38,71976.8,-18.55,-19.17,-19.13,0,*61
1484452978.01,15797,5.38,71982.0,-18.55,-19.17,-19.17,0,*64
1484452979.26,15798,5.38,71978.3,-18.55,-19.17,-19.13,0,*6F
1484452980.51,15799,5.38,71982.0,-18.55,-19.17,-19.17,0,*6A
1484452981.79,15800,5.38,71986.8,-18.55,-19.27,-19.13,0,*62
1484452983.09,15801,5.38,71988.5,-18.55,-19.27,-19.27,0,*64
1484452984.4,15802,5.38,71986.3,-18.55,-19.27,-19.27,0,*67
1484452985.7,15803,5.38,71990.5,-18.55,-19.27,-19.27,0,*66
1484452987.0,15804,5.38,71990.5,-18.55,-19.27,-19.27,0,*61
1484452988.28,15805,5.38,71990.8,-18.57,-19.31,-19.31,0,*62
1484452989.58,15806,5.38,71988.5,-18.55,-19.27,-19.31,0,*64
1484452990.85,15807,5.38,71986.3,-18.55,-19.31,-19.17,0,*66
1484452992.08,15808,5.38,71986.0,-18.57,-19.17,-19.17,0,*6F
1484452993.38,15809,5.38,71984.5,-18.55,-19.27,-19.27,0,*6C
1484452994.63,15810,5.38,71986.3,-18.55,-19.13,-19.13,0,*64
1484452995.88,15811,5.38,71990.3,-18.55,-19.13,-19.13,0,*65
1484452997.13,15812,5.38,71988.0,-18.55,-19.17,-19.17,0,*66
1484452998.38,15813,5.38,71988.5,-18.55,-19.17,-19.17,0,*67
1484452999.63,15814,5.38,71982.3,-18.55,-19.17,-19.17,0,*60
1484453000.91,15815,5.38,71984.5,-18.55,-19.27,-19.13,0,*66
1484453002.19,15816,5.38,71980.3,-18.55,-19.27,-19.13,0,*65
1484453003.47,15817,5.38,71978.5,-18.55,-19.27,-19.17,0,*60
1484453004.72,15818,5.38,71980.8,-18.53,-19.27,-19.17,0,*69
1484453006.03,15819,5.38,71978.8,-18.55,-19.27,-19.27,0,*6D
1484453007.3,15820,5.38,71972.3,-18.53,-19.31,-19.27,0,*66
1484453008.6,15821,5.38,71972.8,-18.55,-19.27,-19.31,0,*61
1484453009.9,15822,5.38,71970.0,-18.55,-19.31,-19.27,0,*62
1484453011.2,15823,5.38,71980.5,-18.55,-19.31,-19.27,0,*63
1484453012.5,15824,5.38,71980.5,-18.55,-19.31,-19.41,0,*64
1484453013.79,15825,5.38,71984.5,-18.55,-19.41,-19.31,0,*65
1484453015.09,15826,5.38,71982.8,-18.55,-19.31,-19.31,0,*61
1484453016.38,15827,5.38,71980.3,-18.55,-19.31,-19.31,0,*60
1484453017.68,15828,5.38,71980.0,-18.55,-19.31,-19.31,0,*6F
1484453018.95,15829,5.38,71982.3,-18.53,-19.41,-19.27,0,*68
1484453020.24,15830,5.38,71984.5,-18.55,-19.41,-19.41,0,*66
1484453021.53,15831,5.38,71978.0,-18.55,-19.41,-19.31,0,*60
1484453022.8,15832,5.38,71982.0,-18.55,-19.41,-19.47,0,*62
1484453024.04,15833,5.38,71986.5,-18.53,-19.47,-19.41,0,*65
1484453025.29,15834,5.38,71974.5,-18.53,-19.47,-19.41,0,*62
1484453026.56,15835,5.38,71974.8,-18.53,-19.41,-19.31,0,*62
1484453027.78,15836,5.38,71980.3,-18.53,-19.47,-19.47,0,*66
1484453029.07,15837,5.38,71986.8,-18.55,-19.41,-19.41,0,*61
1484453030.32,15838,5.38,71982.3,-18.49,-19.37,-19.27,0,*62
1484453031.59,15839,5.38,71988.8,-18.53,-19.41,-19.41,0,*69
1484453032.83,15840,5.38,71988.8,-18.53,-19.47,-19.41,0,*61
1484453034.05,15841,5.38,71974.5,-18.53,-19.47,-19.47,0,*66
1484453035.32,15842,5.38,71982.0,-18.53,-19.41,-19.31,0,*62
1484453036.62,15843,5.38,71974.5,-18.55,-19.31,-19.41,0,*65
1484453037.88,15844,5.38,71978.8,-18.53,-19.41,-19.41,0,*63
1484453039.13,15845,5.38,71984.0,-18.53,-19.47,-19.31,0,*63
1484453040.42,15846,5.38,71984.3,-18.55,-19.41,-19.41,0,*67
1484453041.67,15847,5.38,71986.8,-18.53,-19.47,-19.41,0,*66
1484453042.91,15848,5.38,71988.3,-18.55,-19.47,-19.47,0,*69
1484453044.15,15849,5.38,71990.8,-18.53,-19.41,-19.47,0,*68
1484453045.4,15850,5.38,71992.3,-18.53,-19.47,-19.31,0,*67
1484453046.61,15851,5.38,71992.0,-18.53,-19.47,-19.47,0,*67
1484453047.85,15852,5.38,71986.3,-18.55,-19.47,-19.47,0,*62
1484453049.07,15853,5.38,71990.5,-18.53,-19.47,-19.47,0,*65
1484453050.32,15854,5.38,71980.5,-18.53,-19.47,-19.41,0,*64
1484453051.56,15855,5.38,71980.8,-18.53,-19.47,-19.41,0,*65
1484453052.81,15856,5.38,71984.5,-18.55,-19.47,-19.47,0,*66
1484453054.05,15857,5.38,71980.8,-18.53,-19.47,-19.41,0,*67
1484453055.32,15858,5.38,71980.5,-18.55,-19.47,-19.41,0,*6E
1484453056.57,15859,5.38,71986.3,-18.53,-19.47,-19.41,0,*69
1484453057.78,15860,5.38,71988.0,-18.53,-19.47,-19.47,0,*65
1484453059.0,15861,5.38,71988.0,-18.53,-19.47,-19.47,0,*64
1484453060.24,15862,5.38,71986.5,-18.53,-19.41,-19.47,0,*61
1484453061.49,15863,5.38,71986.3,-18.53,-19.41,-19.47,0,*60
1484453062.78,15864,5.38,71990.0,-18.47,-19.41,-19.41,0,*64
1484453064.02,15865,5.38,71994.8,-18.55,-19.47,-19.47,0,*66
1484453065.27,15866,5.38,71994.0,-18.53,-19.47,-19.41,0,*65
1484453066.54,15867,5.38,71996.8,-18.55,-19.31,-19.47,0,*65
1484453067.81,15868,5.38,71996.0,-18.53,-19.41,-19.41,0,*6D
1484453069.03,15869,5.38,71998.8,-18.53,-19.47,-19.47,0,*6C
1484453070.29,15870,5.38,71994.3,-18.55,-19.47,-19.41,0,*64
1484453071.56,15871,5.38,71998.0,-18.49,-19.41,-19.41,0,*6E
1484453072.78,15872,5.38,72000.0,-18.53,-19.47,-19.47,0,*66
1484453074.03,15873,5.38,71998.3,-18.53,-19.47,-19.41,0,*61
1484453075.32,15874,5.38,72002.5,-18.55,-19.41,-19.41,0,*66
1484453076.59,15875,5.38,71998.3,-18.53,-19.41,-19.41,0,*61
1484453077.86,15876,5.38,72002.0,-18.53,-19.41,-19.31,0,*65
1484453079.14,15877,5.38,72002.0,-18.53,-19.27,-19.31,0,*64
1484453080.42,15878,5.38,71998.3,-18.53,-19.27,-19.27,0,*6C
1484453081.65,15879,5.38,71998.3,-18.53,-19.13,-19.13,0,*6D
1484453082.87,15880,5.38,72002.8,-18.53,-19.13,-19.13,0,*6B
1484453084.09,15881,5.38,72000.5,-18.53,-19.17,-19.03,0,*6F
1484453085.3,15882,5.38,72000.5,-18.53,-19.03,-19.03,0,*69
1484453086.52,15883,5.38,71996.5,-18.53,-19.03,-19.13,0,*69
1484453087.74,15884,5.38,71988.5,-18.53,-18.99,-19.03,0,*6D
1484453088.98,15885,5.38,71992.3,-18.53,-18.99,-18.89,0,*6F
1484453090.19,15886,5.38,71986.3,-18.53,-19.03,-18.99,0,*6F
1484453091.43,15887,5.38,71980.3,-18.49,-18.99,-18.93,0,*6D
1484453092.64,15888,5.38,71974.8,-18.49,-18.83,-18.83,0,*68
1484453093.91,15889,5.38,71968.5,-18.47,-18.93,-18.83,0,*66
1484453095.12,15890,5.38,71966.3,-18.49,-18.83,-18.83,0,*61
1484453096.37,15891,5.38,71962.5,-18.49,-18.83,-18.93,0,*61
1484453097.61,15892,5.38,71958.8,-18.47,-18.83,-18.83,0,*6D
1484453098.85,15893,5.38,71958.3,-18.49,-18.93,-18.83,0,*63
1484453100.11,15894,5.38,71964.5,-18.47,-18.93,-18.99,0,*61
1484453101.41,15895,5.38,71962.8,-18.47,-18.93,-18.93,0,*6A
1484453102.71,15896,5.38,71960.0,-18.47,-18.93,-18.93,0,*69
1484453104.0,15897,5.38,71966.5,-18.47,-18.93,-18.93,0,*68
1484453105.24,15898,5.38,71976.3,-18.47,-18.99,-18.99,0,*67
1484453106.48,15899,5.38,71992.0,-18.47,-18.99,-18.99,0,*66
1484453107.78,15900,5.38,71990.0,-18.47,-18.93,-18.93,0,*67
1484453109.05,15901,5.38,71982.3,-18.47,-18.99,-18.93,0,*6C
1484453110.35,15902,5.38,71972.5,-18.47,-18.93,-18.93,0,*65
1484453111.59,15903,5.38,71976.5,-18.47,-18.83,-18.83,0,*64
1484453112.83,15904,5.38,71978.8,-18.47,-18.83,-18.83,0,*63
1484453114.07,15905,5.38,71962.3,-18.47,-18.79,-18.79,0,*62
1484453115.31,15906,5.38,71958.8,-18.47,-18.79,-18.79,0,*61
1484453116.55,15907,5.38,71952.3,-18.43,-18.73,-18.73,0,*64
1484453117.8,15908,5.38,71950.0,-18.43,-18.79,-18.73,0,*61
1484453119.04,15909,5.38,71944.8,-18.43,-18.79,-18.79,0,*6A
1484453120.27,15910,5.38,71948.8,-18.43,-18.79,-18.79,0,*62
1484453121.52,15911,5.38,71962.8,-18.43,-18.79,-18.73,0,*69
1484453122.76,15912,5.38,71970.5,-18.43,-18.73,-18.79,0,*6A
1484453124.02,15913,5.38,71960.5,-18.43,-18.89,-18.73,0,*64
1484453125.27,15914,5.38,71960.0,-18.43,-18.65,-18.65,0,*66
1484453126.5,15915,5.38,71950.3,-18.41,-18.59,-18.65,0,*6A
1484453127.76,15916,5.38,71944.0,-18.41,-18.59,-18.59,0,*66
1484453129.0,15917,5.38,71948.5,-18.41,-18.59,-18.65,0,*68
1484453130.29,15918,5.38,71954.5,-18.39,-18.55,-18.55,0,*67
1484453131.58,15919,5.38,71960.3,-18.39,-18.59,-18.59,0,*66
1484453132.79,15920,5.38,71960.3,-18.41,-18.73,-18.65,0,*64
1484453134.08,15921,5.38,71956.3,-18.39,-18.59,-18.55,0,*61
1484453135.33,15922,5.38,71952.8,-18.39,-18.69,-18.73,0,*65
1484453136.58,15923,5.38,71962.0,-18.39,-18.73,-18.69,0,*64
1484453137.83,15924,5.38,71966.8,-18.39,-18.73,-18.69,0,*63
1484453139.07,15925,5.38,71966.3,-18.39,-18.69,-18.69,0,*69
1484453140.32,15926,5.38,71974.5,-18.39,-18.69,-18.69,0,*6A
1484453141.57,15927,5.38,71976.3,-18.35,-18.69,-18.69,0,*67
1484453142.82,15928,5.38,71980.3,-18.39,-18.73,-18.69,0,*6F
1484453144.07,15929,5.38,71976.8,-18.35,-18.69,-18.65,0,*65
1484453145.32,15930,5.38,71980.8,-18.39,-18.69,-18.73,0,*66
1484453146.57,15931,5.38,71982.8,-18.39,-18.69,-18.69,0,*6C
1484453147.81,15932,5.38,71980.8,-18.39,-18.73,-18.73,0,*6F
1484453149.05,15933,5.38,71982.5,-18.39,-18.73,-18.83,0,*61
1484453150.3,15934,5.38,71982.5,-18.35,-18.69,-18.69,0,*65
1484453151.55,15935,5.38,71978.5,-18.35,-18.69,-18.65,0,*68
1484453152.84,15936,5.38,71986.0,-18.35,-18.55,-18.55,0,*67
1484453154.13,15937,5.38,71988.0,-18.35,-18.55,-18.55,0,*66
1484453155.4,15938,5.38,71990.0,-18.35,-18.55,-18.65,0,*6A
1484453156.67,15939,5.38,71990.8,-18.35,-18.55,-18.65,0,*6B
1484453157.91,15940,5.38,71994.0,-18.39,-18.73,-18.69,0,*61
1484453159.16,15941,5.38,71994.8,-18.35,-18.69,-18.65,0,*6B
1484453160.41,15942,5.38,71994.0,-18.35,-18.65,-18.65,0,*64
1484453161.65,15943,5.38,71988.0,-18.35,-18.69,-18.65,0,*69
1484453162.9,15944,5.38,71984.5,-18.35,-18.79,-18.69,0,*63
1484453164.15,15945,5.38,71982.0,-18.35,-18.65,-18.65,0,*63
1484453165.39,15946,5.38,71986.0,-18.35,-18.65,-18.65,0,*60
1484453166.61,15947,5.38,71986.8,-18.33,-18.69,-18.65,0,*6B
1484453167.83,15948,5.38,71996.3,-18.33,-18.65,-18.69,0,*64
1484453169.04,15949,5.38,71990.5,-18.33,-18.65,-18.69,0,*65
1484453170.31,15950,5.38,71992.8,-18.31,-18.59,-18.65,0,*6C
1484453171.52,15951,5.38,71994.0,-18.33,-18.65,-18.69,0,*6C
1484453172.78,15952,5.38,71984.3,-18.31,-18.65,-18.59,0,*6E
1484453174.0,15953,5.38,71982.8,-18.33,-18.69,-18.69,0,*62
1484453175.22,15954,5.38,71980.5,-18.33,-18.65,-18.65,0,*65
1484453176.48,15955,5.38,71986.0,-18.31,-18.73,-18.59,0,*6E
1484453177.72,15956,5.38,71992.3,-18.31,-18.65,-18.73,0,*62
1484453178.94,15957,5.38,71990.0,-18.33,-18.73,-18.73,0,*66
1484453180.18,15958,5.38,71992.3,-18.31,-18.73,-18.69,0,*60
1484453181.42,15959,5.38,71982.3,-18.31,-18.65,-18.65,0,*6A
1484453182.67,15960,5.38,71974.3,-18.31,-18.65,-18.73,0,*67
1484453183.95,15961,5.38,71970.8,-18.31,-18.59,-18.59,0,*61
1484453185.21,15962,5.38,71970.3,-18.31,-18.65,-18.59,0,*6D
1484453186.47,15963,5.38,71970.8,-18.31,-18.65,-18.59,0,*6C
1484453187.71,15964,5.38,71966.8,-18.31,-18.65,-18.65,0,*64
1484453188.97,15965,5.38,71960.3,-18.31,-18.65,-18.59,0,*6A
1484453190.22,15966,5.38,71956.8,-18.31,-18.73,-18.65,0,*61
1484453191.45,15967,5.38,71956.5,-18.29,-18.73,-18.59,0,*66
1484453192.69,15968,5.38,71962.3,-18.31,-18.73,-18.65,0,*6F
1484453193.94,15969,5.38,71974.0,-18.31,-18.79,-18.65,0,*64
1484453195.18,15970,5.38,71976.3,-18.31,-18.79,-18.79,0,*61
1484453196.42,15971,5.38,71976.3,-18.31,-18.79,-18.73,0,*6A
1484453197.67,15972,5.38,71966.5,-18.31,-18.73,-18.73,0,*63
1484453198.92,15973,5.38,71980.8,-18.31,-18.89,-18.79,0,*6D
1484453200.17,15974,5.38,71978.5,-18.31,-18.79,-18.73,0,*6F
1484453201.42,15975,5.38,71978.0,-18.31,-18.79,-18.73,0,*6E
1484453202.68,15976,5.38,71982.5,-18.31,-18.89,-18.79,0,*68
1484453203.94,15977,5.38,71982.5,-18.31,-18.89,-18.73,0,*63
1484453205.18,15978,5.38,71974.5,-18.29,-18.89,-18.79,0,*6F
1484453206.4,15979,5.38,71970.8,-18.29,-18.73,-18.73,0,*61
1484453207.62,15980,5.38,71972.3,-18.29,-18.73,-18.73,0,*67
1484453208.86,15981,5.38,71970.3,-18.31,-18.73,-18.73,0,*6F
1484453210.07,15982,5.38,71974.0,-18.29,-18.73,-18.79,0,*6F
1484453211.29,15983,5.38,71978.0,-18.29,-18.79,-18.79,0,*64
1484453212.52,15984,5.38,71978.3,-18.29,-18.89,-18.79,0,*6C
1484453213.79,15985,5.38,71980.0,-18.29,-18.93,-18.89,0,*69
1484453215.05,15986,5.38,71974.8,-18.29,-18.89,-18.89,0,*61
1484453216.31,15987,5.38,71976.5,-18.29,-18.89,-18.89,0,*60
1484453217.55,15988,5.38,71964.8,-18.29,-18.93,-19.03,0,*67
1484453218.81,15989,5.38,71958.3,-18.29,-18.89,-18.93,0,*65
1484453220.11,15990,5.38,71956.0,-18.31,-18.93,-18.89,0,*64
1484453221.4,15991,5.38,71966.5,-18.31,-18.93,-18.93,0,*6E
1484453222.69,15992,5.38,71976.5,-18.31,-18.89,-18.89,0,*6D
1484453223.98,15993,5.38,71982.0,-18.31,-18.93,-18.93,0,*6C
1484453225.25,15994,5.38,71968.5,-18.31,-19.03,-18.93,0,*63
1484453226.49,15995,5.38,71970.3,-18.29,-19.03,-18.93,0,*6B
1484453227.76,15996,5.38,71978.8,-18.29,-18.93,-18.89,0,*6B
1484453229.02,15997,5.38,71976.5,-18.27,-18.89,-18.99,0,*6E
1484453230.25,15998,5.38,71984.3,-18.27,-19.03,-18.99,0,*62
1484453231.47,15999,5.38,71982.3,-18.29,-19.03,-19.03,0,*6F
1484453232.68,16000,5.38,71976.5,-18.29,-19.07,-19.07,0,*65
1484453233.88,16001,5.38,71984.0,-18.29,-19.03,-19.07,0,*60
1484453235.1,16002,5.38,71986.0,-18.29,-19.17,-19.07,0,*66
1484453236.31,16003,5.38,71982.5,-18.29,-19.07,-19.07,0,*66
1484453237.52,16004,5.38,71978.5,-18.29,-19.17,-19.07,0,*60
1484453238.73,16005,5.38,71978.8,-18.29,-19.07,-19.07,0,*60
1484453239.97,16006,5.38,71988.0,-18.31,-19.07,-19.03,0,*6E
1484453241.2,16007,5.38,71980.0,-18.29,-19.17,-19.17,0,*62
1484453242.45,16008,5.38,71974.5,-18.31,-19.17,-19.17,0,*64
1484453243.66,16009,5.38,71972.8,-18.29,-19.03,-19.03,0,*6C
1484453244.95,16010,5.38,71976.0,-18.31,-18.89,-18.93,0,*66
1484453246.21,16011,5.38,71980.8,-18.29,-18.89,-18.89,0,*65
1484453247.47,16012,5.38,71974.3,-18.31,-18.79,-18.89,0,*60
1484453248.68,16013,5.38,71976.5,-18.29,-18.79,-18.79,0,*67
1484453249.91,16014,5.38,71982.3,-18.29,-18.79,-18.73,0,*6A
1484453251.19,16015,5.38,71984.8,-18.31,-18.89,-18.89,0,*68
1484453252.43,16016,5.38,71986.3,-18.29,-18.79,-18.93,0,*66
1484453253.7,16017,5.38,71986.5,-18.29,-18.89,-18.93,0,*68
1484453254.96,16018,5.38,71984.0,-18.29,-18.89,-18.93,0,*67
1484453256.2,16019,5.38,71986.5,-18.29,-18.89,-18.79,0,*62
1484453257.45,16020,5.38,71982.0,-18.29,-18.93,-18.73,0,*69
1484453258.68,16021,5.38,71986.8,-18.29,-18.89,-18.79,0,*69
1484453259.92,16022,5.38,71980.8,-18.29,-18.89,-18.73,0,*60
1484453261.16,16023,5.38,71978.8,-18.29,-18.93,-18.79,0,*60
1484453262.38,16024,5.38,71972.3,-18.29,-18.73,-18.73,0,*63
1484453263.6,16025,5.38,71974.3,-18.29,-18.79,-18.79,0,*62
1484453264.81,16026,5.38,71974.5,-18.29,-18.79,-18.79,0,*61
1484453266.05,16027,5.38,71970.0,-18.29,-18.93,-18.79,0,*64
1484453267.29,16028,5.38,71964.8,-18.27,-18.83,-18.83,0,*61
1484453268.56,16029,5.38,71964.0,-18.27,-18.83,-18.89,0,*6A
1484453269.85,16030,5.38,71970.5,-18.27,-18.89,-18.89,0,*68
1484453271.09,16031,5.38,71972.8,-18.27,-18.99,-18.83,0,*62
1484453272.33,16032,5.38,71978.0,-18.27,-18.83,-18.83,0,*6A
1484453273.57,16033,5.38,71980.3,-18.27,-18.83,-18.83,0,*6B
1484453274.83,16034,5.38,71976.3,-18.27,-18.83,-18.89,0,*66
1484453276.12,16035,5.38,71982.8,-18.31,-18.89,-18.89,0,*6A
1484453277.4,16036,5.38,71980.0,-18.27,-18.89,-18.89,0,*6E
1484453278.69,16037,5.38,71984.8,-18.27,-18.89,-18.89,0,*6F
1484453279.98,16038,5.38,71980.8,-18.27,-18.89,-18.89,0,*60
1484453281.24,16039,5.38,71980.3,-18.27,-18.83,-18.89,0,*6B
1484453282.48,16040,5.38,71982.5,-18.27,-18.99,-18.83,0,*64
1484453283.72,16041,5.38,71982.0,-18.27,-18.99,-18.99,0,*6E
1484453284.96,16042,5.38,71990.8,-18.27,-19.03,-18.83,0,*64
1484453286.2,16043,5.38,71988.0,-18.27,-18.99,-19.03,0,*6E
1484453287.44,16044,5.38,71988.0,-18.27,-19.03,-19.03,0,*6B
1484453288.68,16045,5.38,71990.8,-18.27,-18.99,-18.83,0,*61
1484453289.92,16046,5.38,71990.0,-18.23,-18.99,-18.99,0,*6D
1484453291.16,16047,5.38,71992.0,-18.27,-19.03,-18.99,0,*6A
1484453292.4,16048,5.38,71996.0,-18.27,-19.03,-18.99,0,*65
1484453293.66,16049,5.38,71996.5,-18.27,-18.99,-18.89,0,*67
1484453294.91,16050,5.38,71992.3,-18.27,-18.99,-19.03,0,*6C
1484453296.15,16051,5.38,71992.8,-18.27,-18.99,-19.03,0,*6D
1484453297.41,16052,5.38,71996.0,-18.27,-18.99,-18.89,0,*6D
1484453298.7,16053,5.38,71992.0,-18.23,-18.89,-18.89,0,*69
1484453299.99,16054,5.38,71992.5,-18.27,-18.89,-18.89,0,*6A
1484453301.27,16055,5.38,71992.5,-18.27,-18.89,-18.89,0,*6B